Weather History for Yakima, WA

Change the Weather History Date:

Wednesday, September 3, 2014

  Actual Average Record
Temperature  
Mean Temperature 61 °F 65 °F  
Max Temperature 75 °F 82 °F 100 °F (1988)
Min Temperature 47 °F 47 °F 35 °F (2000)
Degree Days  
Heating Degree Days 4 2  
Month to date heating degree days 6 6  
Since 1 July heating degree days 12 54  
Cooling Degree Days 0 2  
Month to date cooling degree days 0 6  
Year to date cooling degree days 827 446  
Growing Degree Days 10 (Base 50)    
Moisture  
Dew Point 41 °F    
Average Humidity 52    
Maximum Humidity 77    
Minimum Humidity 27    
Precipitation  
Precipitation 0.00 in 0.02 in 0.29 in (1978)
Month to date precipitation T 0.04  
Year to date precipitation 3.96 4.81  
Snow  
Snow 0.00 in 0.00 in 0.00 in (2002)
Month to date snowfall 0.0 0.0  
Year to date snowfall 19.9 8.6  
Since 1 July snowfall 0.0 0.0  
Snow Depth 0.00 in    
Sea Level Pressure  
Sea Level Pressure 29.95 in    
Wind  
Wind Speed 11 mph (NW)    
Max Wind Speed 29 mph    
Max Gust Speed 36 mph    
Visibility 10 miles    
Events      
T = Trace of Precipitation, MM = Missing Value Source: NWS Daily Summary

Daily Weather History Graph

Daily Weather History Graph

Search for Another Location

Airport:

Trip Planner

Search our weather history database for the weather conditions in past years. The results will help you decide how hot, cold, wet, or windy it might be!

Date:

Astronomy

Sep. 03, 2014 Rise Set
Actual Time 6:24 AM PDT 7:37 PM PDT
Civil Twilight 5:53 AM PDT 8:08 PM PDT
Nautical Twilight 5:16 AM PDT 8:45 PM PDT
Astronomical Twilight 4:36 AM PDT 9:25 PM PDT
Moon 3:35 PM PDT (9/3) 12:12 AM PDT (9/3)
Length of Visible Light 14h 14m
Length of Day
13h 12m
Waxing Gibbous, 65% of the Moon is Illuminated
Sep 3
Waxing Gibbous
Sep 8
Full
Sep 15
Last Quarter
Sep 23
New
Oct 1
First Quarter

Hourly Weather History & Observations

Time (PDT) Temp. Dew Point Humidity Pressure Visibility Wind Dir Wind Speed Gust Speed Precip Events Conditions
12:53 AM 57.9 °F 39.9 °F 51% 29.81 in 10.0 mi WNW 4.6 mph - N/A   Clear
1:53 AM 55.0 °F 39.9 °F 57% 29.81 in 10.0 mi West 6.9 mph - N/A   Clear
2:53 AM 59.0 °F 39.0 °F 48% 29.82 in 10.0 mi West 8.1 mph - N/A   Clear
3:53 AM 54.0 °F 39.9 °F 59% 29.85 in 10.0 mi WNW 8.1 mph - N/A   Clear
4:53 AM 54.0 °F 39.9 °F 59% 29.86 in 10.0 mi North 3.5 mph - N/A   Clear
5:53 AM 48.0 °F 39.9 °F 74% 29.88 in 10.0 mi SW 6.9 mph - N/A   Clear
6:53 AM 48.0 °F 41.0 °F 77% 29.91 in 10.0 mi West 6.9 mph - N/A   Clear
7:53 AM 55.9 °F 43.0 °F 62% 29.93 in 10.0 mi West 4.6 mph - N/A   Clear
8:53 AM 64.0 °F 44.1 °F 48% 29.94 in 10.0 mi West 10.4 mph - N/A   Clear
9:53 AM 68.0 °F 41.0 °F 37% 29.95 in 10.0 mi NW 9.2 mph 25.3 mph N/A   Clear
10:53 AM 70.0 °F 41.0 °F 35% 29.96 in 10.0 mi NNW 12.7 mph 29.9 mph N/A   Clear
11:53 AM 72.0 °F 39.9 °F 31% 29.96 in 10.0 mi NNW 8.1 mph 28.8 mph N/A   Scattered Clouds
12:53 PM 73.0 °F 39.9 °F 30% 29.96 in 10.0 mi NNW 15.0 mph 31.1 mph N/A   Clear
1:53 PM 73.9 °F 39.9 °F 29% 29.96 in 10.0 mi NNW 21.9 mph 31.1 mph N/A   Clear
2:53 PM 73.0 °F 37.9 °F 28% 29.97 in 10.0 mi NNW 21.9 mph 33.4 mph N/A   Scattered Clouds
3:53 PM 73.9 °F 39.0 °F 28% 29.96 in 10.0 mi NNW 20.7 mph 33.4 mph N/A   Scattered Clouds
4:53 PM 73.0 °F 39.0 °F 29% 29.97 in 10.0 mi NW 23.0 mph 31.1 mph N/A   Scattered Clouds
5:53 PM 72.0 °F 39.9 °F 31% 29.99 in 10.0 mi NW 17.3 mph 29.9 mph N/A   Scattered Clouds
6:53 PM 69.1 °F 39.9 °F 35% 30.00 in 10.0 mi NW 12.7 mph 26.5 mph N/A   Clear
7:53 PM 64.9 °F 41.0 °F 42% 30.01 in 10.0 mi NW 10.4 mph - N/A   Clear
8:53 PM 64.0 °F 42.1 °F 45% 30.03 in 10.0 mi NNW 10.4 mph - N/A   Clear
9:53 PM 61.0 °F 43.0 °F 52% 30.05 in 10.0 mi West 5.8 mph - N/A   Clear
10:53 PM 59.0 °F 43.0 °F 55% 30.06 in 10.0 mi NW 4.6 mph - N/A   Clear
11:53 PM 55.0 °F 42.1 °F 62% 30.06 in 10.0 mi West 5.8 mph - N/A   Clear